Welcome to the New NWS' Forecast!
Most changes are behind the scenes, but click here for differences you might notice.

Regional Weather Roundup (RWR)

Issued by National Weather Service (NWS)

                            
000
ASUS46 KSEW 150310
RWRWA 

WASHINGTON REGIONAL WEATHER ROUNDUP
NATIONAL WEATHER SERVICE SEATTLE WA
700 PM PST WED NOV 14 2018

NOTE:"FAIR" INDICATES FEW OR NO CLOUDS BELOW 12,000 FEET WITH NO 
SIGNIFICANT WEATHER AND/OR OBSTRUCTIONS TO VISIBILITY.

WAZ507-509-555>559-150400-
SEATTLE, TACOMA, EVERETT, AND VICINITY
  
CITY           SKY/WX    TMP DP  RH WIND       PRES   REMARKS
EVERETT        CLOUDY    52  49  89 CALM      30.35R                  
BOEING FIELD   CLOUDY    54  47  77 VRB3      30.35R                  
RENTON         CLOUDY    54  48  80 CALM      30.35R                  
SEATAC AIRPORT CLOUDY    53  48  83 S5        30.35R                  
JBLM-MCCHORD   MOCLDY    50  50 100 S7        30.35R                  
PUYALLUP       FAIR      52  48  87 CALM      30.35S                  
BREMERTON      CLOUDY    50  49  96 CALM      30.34R                  
JBLM-FT LEWIS  MOCLDY    48  48 100 SE8       30.35R                  
TACOMA NARROWS PTCLDY    49  46  90 S10       30.35S                  
$$
 
WAZ001-503-506-510-514-515-150400-
NORTH INTERIOR
  
CITY           SKY/WX    TMP DP  RH WIND       PRES   REMARKS
BELLINGHAM     MOCLDY    53  46  77 S8        30.31R                  
FRIDAY HARBOR  CLOUDY    51  47  86 S7        30.34R                  
EASTSOUND      PTCLDY    54  48  82 S15       30.30S                  
PORT ANGELES   MOCLDY    46  45  96 CALM      30.34R                  
EDIZ HOOK      CLOUDY    49  48  96 CALM      30.33S                  
PORT TOWNSEND  FOG       45  45 100 E5        30.33R VSB 1/4          
NAS WHIDBEY    LGT RAIN  53  48  83 SE6       30.38R                  
ARLINGTON      FOG       46  46 100 CALM      30.35R VSB 1/2          
BURLINGTON     CLOUDY    50  50 100 CALM      30.34S                  
$$
 
WAZ020-022-039-040-504-511-512-150400-
SOUTHWEST INTERIOR
  
CITY           SKY/WX    TMP DP  RH WIND       PRES   REMARKS
SHELTON        PTCLDY    52  49  89 SW9       30.32S                  
OLYMPIA        CLOUDY    46  45  96 S7        30.37R FOG              
CHEHALIS       FAIR      46  45  93 S5        30.38S                  
KELSO          CLOUDY    48  46  93 S7        30.41S                  
VANCOUVER      CLOUDY    46  45  96 CALM      30.41S FOG              
SCAPPOOSE, OR  CLOUDY    46  45  96 CALM      30.41S FOG              
PORTLAND, OR   CLOUDY    47  45  93 CALM      30.42S FOG              
$$
 
WAZ021-516-517-150400-
WASHINGTON COAST
  
CITY           SKY/WX    TMP DP  RH WIND       PRES   REMARKS
FORKS          FOG       48  48 100 CALM      30.33F VSB 1/2          
HOQUIAM        CLOUDY    53  52  96 CALM      30.36S                  
ASTORIA, OR    CLOUDY    49  49 100 CALM      30.38S FOG              
$$
 
WAZ019-023-024-040-567>569-150400-
CASCADE MOUNTAINS AND COLUMBIA GORGE
  
CITY           SKY/WX    TMP DP  RH WIND       PRES   REMARKS
STAMPEDE PASS  CLOUDY    40  38  93 W8        30.30R FOG              
TROUTDALE, OR  CLOUDY    47  45  93 CALM      30.42S FOG              
HOOD RIVER, OR MOCLDY    43  41  93 S3        30.38R                  
THE DALLES, OR PTCLDY    48  42  80 NW10      30.35S                  
$$

WAZ026-027-041>044-520-521-150400-
EAST SLOPES
  
CITY           SKY/WX    TMP DP  RH WIND       PRES   REMARKS
OMAK           CLOUDY    32  29  88 CALM      30.36R                  
WENATCHEE      CLOUDY    32  29  88 CALM      30.35R                  
ELLENSBURG     CLOUDY    48  37  65 CALM      30.29R                  
YAKIMA         PTCLDY    29  26  89 W8        30.34R FOG              
SUNNYSIDE ARPT MOCLDY    31  30  95 CALM      30.34  FOG              
YAKIMA TC      FAIR      31  29  90 CALM      30.31R                  
$$

WAZ028-034-035-150400-
COLUMBIA BASIN
  
CITY           SKY/WX    TMP DP  RH WIND       PRES   REMARKS
EPHRATA        CLOUDY    32  31  96 NE7       30.35R FOG              
MOSES LAKE     CLOUDY    32  30  92 N7        30.35R                  
PASCO          MOCLDY    35  30  82 CALM      30.35R                  
RICHLAND ARPT  MOCLDY    36  32  85 N9        30.35R                  
HERMISTON, OR  CLOUDY    43  32  65 E6        30.33R                  
$$

WAZ036>038-150400-
NORTHEAST WASHINGTON
  
CITY           SKY/WX    TMP DP  RH WIND       PRES   REMARKS
SPOKANE GEIGER CLOUDY    35  27  72 SE3       30.29R                  
SPOKANE FELTS  CLOUDY    40  31  70 CALM      30.31R                  
FAIRCHILD AFB  CLOUDY    33  32  95 SW6       30.28R                  
COEURDALENE,ID MOCLDY    35  29  78 S3        30.30R                  
DEER PARK      CLOUDY    31  28  89 CALM      30.31R                  
$$

WAZ029>033-150400-
SOUTHEAST WASHINGTON
  
CITY           SKY/WX    TMP DP  RH WIND       PRES   REMARKS
PULLMAN        CLOUDY    47  30  51 SW9       30.32R                  
LEWISTON, ID   CLOUDY    48  32  53 NE3       30.32R                  
WALLA WALLA    CLOUDY    50  30  46 S7        30.33R                  
PENDLETON, OR  CLOUDY    41  29  62 E5        30.33R                  
$$